Location: McCall
(45.0000°N, 116.0000°W)
Time: 16:08:20
(UTC-07:00)

Saudisat 1A - Visible Passes

Search period start: 20 November 2017 00:00
Search period end: 30 November 2017 00:00
Orbit: 586 x 605 km, 64.6° (Epoch: 20 November)

Date Brightness Start Highest point End Pass type
(mag) Time Alt. Az. Time Alt. Az. Time Alt. Az.
20 Nov 9.8 19:28:18 10° NNW 19:30:01 20° N 19:30:01 20° N visible
21 Nov 10.0 18:00:06 10° N 18:01:51 12° NNE 18:03:18 11° NE visible
21 Nov 9.6 19:37:58 10° NNW 19:39:58 25° NNW 19:39:58 25° NNW visible
22 Nov 9.6 18:09:15 10° N 18:12:06 17° NE 18:13:23 15° NE visible
22 Nov 9.5 19:47:45 10° NW 19:50:03 30° NW 19:50:03 30° NW visible
23 Nov 9.2 18:18:42 10° NNW 18:22:16 24° NE 18:23:37 20° ENE visible
23 Nov 9.5 19:57:42 10° NW 20:00:19 33° WNW 20:00:19 33° WNW visible
24 Nov 8.6 18:28:16 10° NNW 18:32:20 35° NE 18:34:07 25° E visible
24 Nov 9.9 20:07:50 10° NW 20:10:50 28° W 20:10:50 28° W visible
25 Nov 8.0 18:37:58 10° NNW 18:42:18 58° NE 18:45:00 22° SE visible
25 Nov 10.5 20:18:23 10° WNW 20:21:17 17° WSW 20:21:44 17° WSW visible
26 Nov 8.0 18:47:46 10° NW 18:52:10 83° SW 18:56:31 10° SSE visible
27 Nov 9.0 18:57:44 10° NW 19:01:57 47° WSW 19:06:07 10° SSE visible
28 Nov 10.1 19:07:56 10° WNW 19:11:38 27° WSW 19:15:17 10° S visible
29 Nov 8.0 17:37:57 10° NNW 17:42:19 64° NE 17:46:38 10° SE visible
29 Nov 11.1 19:18:37 10° WNW 19:21:14 16° WSW 19:23:50 10° SSW visible
